This is the latest recevied weather packets stored in our database for station/object iz1wiy-3. If no packets are shown the sender has not sent any weather packets the latest 1 day(s).
| Time | Temp. | Humidity | Pressure | Rain* | Wind** | Luminosity | Snow |
|---|---|---|---|---|---|---|---|
| 1778048043 | 17.78° C | 86% | 1009.6 hPa | 12.19 mm | 4.02 m/s, 214° | - | - |
| 1778047985 | 17.78° C | 86% | 1009.6 hPa | 13.72 mm | 4.02 m/s, 215° | - | - |
| 1778047924 | 17.78° C | 86% | 1009.5 hPa | 14.73 mm | 3.58 m/s, 216° | - | - |
| 1778047863 | 17.78° C | 86% | 1009.5 hPa | 15.24 mm | 3.58 m/s, 215° | - | - |
| 1778047803 | 17.78° C | 86% | 1009.5 hPa | 16 mm | 3.58 m/s, 216° | - | - |
| 1778047743 | 17.78° C | 86% | 1009.5 hPa | 16.51 mm | 3.58 m/s, 217° | - | - |
| 1778047683 | 17.78° C | 86% | 1009.6 hPa | 16.51 mm | 3.58 m/s, 218° | - | - |
| 1778047623 | 17.78° C | 87% | 1009.5 hPa | 16.51 mm | 3.58 m/s, 218° | - | - |
| 1778047574 | 17.78° C | 86% | 1009.6 hPa | 16.51 mm | 3.58 m/s, 219° | - | - |
| 1778047503 | 17.78° C | 87% | 1009.3 hPa | 16.51 mm | 3.58 m/s, 220° | - | - |
| 1778047443 | 17.78° C | 87% | 1009.3 hPa | 16.51 mm | 3.58 m/s, 219° | - | - |
| 1778047383 | 17.22° C | 87% | 1009.3 hPa | 16.51 mm | 3.58 m/s, 216° | - | - |
| 1778047323 | 17.22° C | 87% | 1009.3 hPa | 16.51 mm | 3.58 m/s, 214° | - | - |
| 1778047263 | 17.22° C | 87% | 1009.3 hPa | 16.51 mm | 3.58 m/s, 213° | - | - |
| 1778047203 | 17.22° C | 87% | 1009.4 hPa | 16.51 mm | 3.13 m/s, 212° | - | - |
| 1778047143 | 17.22° C | 87% | 1009.3 hPa | 16.51 mm | 3.13 m/s, 212° | - | - |
| 1778047083 | 17.22° C | 87% | 1009.3 hPa | 16.51 mm | 3.13 m/s, 208° | - | - |
| 1778047023 | 17.22° C | 88% | 1009.3 hPa | 16.51 mm | 3.13 m/s, 204° | - | - |
| 1778046963 | 17.22° C | 88% | 1009.3 hPa | 16.51 mm | 2.68 m/s, 202° | - | - |
| 1778046903 | 17.22° C | 88% | 1009.3 hPa | 16.51 mm | 2.68 m/s, 201° | - | - |
| 1778046843 | 17.22° C | 88% | 1009.3 hPa | 16.51 mm | 2.24 m/s, 201° | - | - |
| 1778046783 | 17.22° C | 88% | 1009.4 hPa | 16.76 mm | 2.24 m/s, 200° | - | - |
| 1778046723 | 17.22° C | 88% | 1009.3 hPa | 16.76 mm | 1.79 m/s, 201° | - | - |
| 1778046663 | 17.22° C | 89% | 1009.3 hPa | 16.51 mm | 1.79 m/s, 201° | - | - |
| 1778046603 | 16.67° C | 89% | 1009.2 hPa | 16.51 mm | 1.34 m/s, 201° | - | - |
* Rain latest hour (hover to see other rain measurements)
** Current wind speed in m/s (hover to see current wind gust speed)